| time (UTC) | temp C | wind direction | speed KPH | gust KPH | rain 1hr cm | rain 24hr cm | rain mn cm | humidity % | barometer mb |
| 20260507020707 | 10 | 5 | 0.0 | 0.0 | 0.00 | 0.91 | 0.91 | 71 | 1014.4 |
| 20260507020202 | 10 | 7 | 0.0 | 0.0 | 0.00 | 0.91 | 0.91 | 71 | 1014.2 |
| 20260507015700 | 10 | 7 | 0.0 | 0.0 | 0.00 | 0.91 | 0.91 | 70 | 1014.2 |
| 20260507015158 | 10 | 7 | 0.0 | 0.0 | 0.00 | 0.91 | 0.91 | 69 | 1014.4 |
| 20260507014654 | 10 | 7 | 0.0 | 0.0 | 0.00 | 0.91 | 0.91 | 68 | 1014.4 |
| 20260507014150 | 10 | 7 | 0.0 | 0.0 | 0.00 | 0.91 | 0.91 | 67 | 1014.3 |
| 20260507013647 | 10 | 7 | 0.0 | 0.0 | 0.00 | 0.91 | 0.91 | 67 | 1014.4 |
| 20260507013144 | 10 | 4 | 0.0 | 0.0 | 0.00 | 0.91 | 0.91 | 67 | 1014.2 |
| 20260507012642 | 10 | 7 | 0.0 | 0.0 | 0.00 | 0.91 | 0.91 | 69 | 1014.4 |
| 20260507012137 | 10 | 8 | 0.0 | 0.0 | 0.00 | 0.91 | 0.91 | 67 | 1014.3 |
| 20260507011635 | 10 | 0 | 0.0 | 0.0 | 0.00 | 0.91 | 0.91 | 67 | 1014.4 |
| 20260507011131 | 10 | 8 | 0.0 | 0.0 | 0.00 | 0.91 | 0.91 | 67 | 1014.2 |
| 20260507010626 | 10 | 24 | 0.0 | 0.0 | 0.00 | 0.91 | 0.91 | 66 | 1014.3 |
| 20260507010122 | 10 | 6 | 0.0 | 0.0 | 0.00 | 0.91 | 0.91 | 65 | 1014.2 |
| 20260507005619 | 10 | 5 | 0.0 | 0.0 | 0.00 | 0.91 | 0.91 | 64 | 1014.1 |
| 20260507005115 | 10 | 5 | 0.0 | 0.0 | 0.00 | 0.91 | 0.91 | 62 | 1013.9 |
| 20260507004613 | 10 | 9 | 0.0 | 0.0 | 0.00 | 0.91 | 0.91 | 61 | 1013.9 |
| 20260507004110 | 11 | 20 | 1.6 | 1.6 | 0.00 | 0.91 | 0.91 | 61 | 1013.9 |
| 20260507003606 | 11 | 3 | 1.6 | 1.6 | 0.00 | 0.91 | 0.91 | 59 | 1013.7 |
| 20260507003101 | 11 | 13 | 0.0 | 0.0 | 0.00 | 0.91 | 0.91 | 59 | 1013.5 |
| 20260507002558 | 11 | 351 | 0.0 | 1.6 | 0.00 | 0.91 | 0.91 | 58 | 1013.6 |
| 20260507002053 | 11 | 358 | 0.0 | 0.0 | 0.00 | 0.91 | 0.91 | 57 | 1013.4 |
| 20260507001551 | 11 | 20 | 0.0 | 0.0 | 0.00 | 0.91 | 0.91 | 56 | 1013.3 |
| 20260507001048 | 12 | 6 | 1.6 | 1.6 | 0.00 | 0.91 | 0.91 | 56 | 1013.4 |
| 20260507000544 | 12 | 347 | 3.2 | 3.2 | 0.00 | 0.91 | 0.91 | 55 | 1013.5 |
| 20260507000040 | 12 | 32 | 1.6 | 1.6 | 0.00 | 0.91 | 0.91 | 55 | 1013.3 |
| 20260506235538 | 12 | 349 | 3.2 | 3.2 | 0.00 | 0.91 | 0.91 | 54 | 1013.1 |
| 20260506235033 | 12 | 353 | 1.6 | 3.2 | 0.00 | 0.91 | 0.91 | 55 | 1013.1 |
| 20260506234531 | 12 | 3 | 0.0 | 0.0 | 0.00 | 0.91 | 0.91 | 57 | 1013.2 |
| 20260506234028 | 12 | 2 | 0.0 | 0.0 | 0.00 | 0.91 | 0.91 | 54 | 1013.3 |
| 20260506233524 | 12 | 354 | 1.6 | 1.6 | 0.00 | 0.91 | 0.91 | 55 | 1013.3 |
| 20260506233021 | 12 | 17 | 0.0 | 0.0 | 0.00 | 0.91 | 0.91 | 55 | 1013.1 |
| 20260506232517 | 12 | 19 | 1.6 | 1.6 | 0.00 | 0.91 | 0.91 | 53 | 1013.3 |
| 20260506232013 | 12 | 7 | 3.2 | 3.2 | 0.00 | 0.91 | 0.91 | 53 | 1013.2 |
| 20260506231511 | 13 | 5 | 1.6 | 3.2 | 0.00 | 0.91 | 0.91 | 54 | 1013.3 |
| 20260506231008 | 13 | 331 | 3.2 | 8.0 | 0.00 | 0.91 | 0.91 | 53 | 1013.3 |
| 20260506230504 | 13 | 30 | 4.8 | 8.0 | 0.00 | 0.91 | 0.91 | 55 | 1013.4 |
| 20260506230002 | 13 | 22 | 1.6 | 1.6 | 0.00 | 0.91 | 0.91 | 56 | 1013.7 |
| 20260506225459 | 13 | 349 | 3.2 | 3.2 | 0.00 | 0.91 | 0.91 | 53 | 1013.6 |
| 20260506224954 | 13 | 17 | 1.6 | 3.2 | 0.00 | 0.91 | 0.91 | 56 | 1013.8 |
| 20260506224452 | 13 | 224 | 1.6 | 3.2 | 0.00 | 0.91 | 0.91 | 57 | 1013.7 |
| 20260506223948 | 13 | 21 | 3.2 | 3.2 | 0.00 | 0.91 | 0.91 | 57 | 1013.8 |
| 20260506223444 | 13 | 264 | 1.6 | 1.6 | 0.00 | 0.91 | 0.91 | 56 | 1013.7 |
| 20260506222942 | 13 | 51 | 4.8 | 8.0 | 0.00 | 0.91 | 0.91 | 55 | 1014.0 |
| 20260506222438 | 13 | 22 | 1.6 | 1.6 | 0.00 | 0.91 | 0.91 | 55 | 1014.0 |
| 20260506221935 | 13 | 13 | 3.2 | 4.8 | 0.00 | 0.91 | 0.91 | 55 | 1013.7 |
| 20260506221432 | 13 | 10 | 3.2 | 4.8 | 0.00 | 0.91 | 0.91 | 54 | 1014.0 |
| 20260506220930 | 13 | 52 | 1.6 | 3.2 | 0.00 | 0.91 | 0.91 | 54 | 1013.8 |
| 20260506220425 | 13 | 3 | 3.2 | 3.2 | 0.00 | 0.91 | 0.91 | 54 | 1013.6 |
| 20260506215922 | 13 | 11 | 3.2 | 4.8 | 0.00 | 0.91 | 0.91 | 55 | 1013.2 |
| 20260506215418 | 13 | 322 | 1.6 | 1.6 | 0.00 | 0.91 | 0.91 | 56 | 1013.1 |
| 20260506214914 | 13 | 21 | 4.8 | 9.7 | 0.00 | 0.91 | 0.91 | 53 | 1013.1 |
| 20260506214411 | 13 | 7 | 1.6 | 1.6 | 0.00 | 0.91 | 0.91 | 57 | 1013.1 |
| 20260506213909 | 13 | 32 | 1.6 | 1.6 | 0.00 | 0.91 | 0.91 | 56 | 1013.1 |
| 20260506213406 | 13 | 350 | 4.8 | 4.8 | 0.00 | 0.91 | 0.91 | 57 | 1012.9 |
| 20260506212904 | 13 | 21 | 1.6 | 3.2 | 0.00 | 0.91 | 0.91 | 57 | 1012.9 |
| 20260506212359 | 13 | 11 | 1.6 | 1.6 | 0.00 | 0.91 | 0.91 | 56 | 1012.8 |
| 20260506211854 | 13 | 28 | 3.2 | 4.8 | 0.00 | 0.91 | 0.91 | 56 | 1012.8 |
| 20260506211350 | 13 | 312 | 1.6 | 3.2 | 0.00 | 0.91 | 0.91 | 56 | 1012.9 |
| 20260506210848 | 14 | 12 | 3.2 | 3.2 | 0.00 | 0.91 | 0.91 | 56 | 1012.7 |
| 20260506210344 | 14 | 15 | 0.0 | 1.6 | 0.00 | 0.91 | 0.91 | 56 | 1012.8 |
| 20260506205842 | 13 | 354 | 6.4 | 9.7 | 0.00 | 0.91 | 0.91 | 57 | 1012.7 |
| 20260506205337 | 13 | 336 | 1.6 | 1.6 | 0.00 | 0.91 | 0.91 | 57 | 1012.9 |
| 20260506204834 | 14 | 321 | 3.2 | 4.8 | 0.00 | 0.91 | 0.91 | 55 | 1012.6 |
| 20260506204332 | 14 | 12 | 0.0 | 0.0 | 0.00 | 0.91 | 0.91 | 55 | 1012.6 |
| 20260506203829 | 14 | 15 | 1.6 | 3.2 | 0.00 | 0.91 | 0.91 | 55 | 1012.6 |
| 20260506203326 | 14 | 345 | 3.2 | 4.8 | 0.00 | 0.91 | 0.91 | 52 | 1012.7 |
| 20260506202823 | 15 | 352 | 3.2 | 3.2 | 0.00 | 0.91 | 0.91 | 55 | 1012.5 |
| 20260506202320 | 15 | 19 | 1.6 | 3.2 | 0.00 | 0.91 | 0.91 | 55 | 1012.6 |
| 20260506201816 | 15 | 17 | 6.4 | 9.7 | 0.00 | 0.91 | 0.91 | 55 | 1012.5 |
| 20260506201314 | 15 | 10 | 4.8 | 4.8 | 0.00 | 0.91 | 0.91 | 53 | 1012.3 |
| 20260506200811 | 15 | 282 | 4.8 | 9.7 | 0.00 | 0.91 | 0.91 | 52 | 1012.5 |
| 20260506200307 | 15 | 352 | 6.4 | 9.7 | 0.00 | 0.91 | 0.91 | 52 | 1012.3 |
| 20260506195803 | 15 | 355 | 3.2 | 4.8 | 0.00 | 0.91 | 0.91 | 51 | 1012.5 |
| 20260506195301 | 16 | 355 | 6.4 | 9.7 | 0.00 | 0.91 | 0.91 | 52 | 1012.4 |
| 20260506194758 | 16 | 333 | 1.6 | 3.2 | 0.00 | 0.91 | 0.91 | 50 | 1012.4 |
| 20260506194254 | 15 | 345 | 3.2 | 3.2 | 0.00 | 0.91 | 0.91 | 52 | 1012.4 |
| 20260506193752 | 15 | 299 | 4.8 | 4.8 | 0.00 | 0.91 | 0.91 | 54 | 1012.4 |
| 20260506193248 | 16 | 31 | 3.2 | 8.0 | 0.00 | 0.91 | 0.91 | 52 | 1012.5 |
| 20260506192744 | 16 | 6 | 3.2 | 3.2 | 0.00 | 0.91 | 0.91 | 50 | 1012.3 |
| 20260506192241 | 15 | 359 | 3.2 | 3.2 | 0.00 | 0.91 | 0.91 | 50 | 1012.0 |
| 20260506191738 | 15 | 58 | 4.8 | 4.8 | 0.00 | 0.91 | 0.91 | 54 | 1012.0 |
| 20260506191234 | 15 | 354 | 3.2 | 3.2 | 0.00 | 0.91 | 0.91 | 49 | 1011.9 |
| 20260506190732 | 15 | 350 | 3.2 | 4.8 | 0.00 | 0.91 | 0.91 | 50 | 1012.2 |
| 20260506190228 | 15 | 6 | 3.2 | 4.8 | 0.00 | 0.91 | 0.91 | 54 | 1012.3 |
| 20260506185725 | 16 | 339 | 3.2 | 3.2 | 0.00 | 0.91 | 0.91 | 54 | 1012.4 |
| 20260506185221 | 15 | 4 | 3.2 | 3.2 | 0.00 | 0.91 | 0.91 | 54 | 1012.2 |
| 20260506184719 | 15 | 338 | 6.4 | 11.3 | 0.00 | 0.91 | 0.91 | 53 | 1012.4 |
| 20260506184216 | 16 | 111 | 1.6 | 1.6 | 0.00 | 0.91 | 0.91 | 53 | 1012.3 |
| 20260506183713 | 15 | 24 | 3.2 | 4.8 | 0.00 | 0.91 | 0.91 | 56 | 1012.2 |
| 20260506183209 | 15 | 350 | 1.6 | 3.2 | 0.00 | 0.91 | 0.91 | 53 | 1012.5 |
| 20260506182706 | 15 | 47 | 8.0 | 9.7 | 0.00 | 0.91 | 0.91 | 54 | 1012.5 |
| 20260506182203 | 15 | 358 | 4.8 | 4.8 | 0.00 | 0.91 | 0.91 | 54 | 1012.5 |
| 20260506181701 | 15 | 21 | 4.8 | 4.8 | 0.00 | 0.91 | 0.91 | 54 | 1012.6 |
| 20260506181158 | 15 | 5 | 11.3 | 14.5 | 0.00 | 0.91 | 0.91 | 52 | 1012.6 |
| 20260506180655 | 15 | 24 | 8.0 | 9.7 | 0.00 | 0.91 | 0.91 | 53 | 1012.3 |
| 20260506180151 | 15 | 355 | 1.6 | 4.8 | 0.00 | 0.91 | 0.91 | 53 | 1012.5 |
| 20260506175648 | 15 | 356 | 0.0 | 1.6 | 0.00 | 0.91 | 0.91 | 53 | 1012.4 |
| 20260506175144 | 15 | 351 | 1.6 | 3.2 | 0.00 | 0.91 | 0.91 | 54 | 1012.5 |
| 20260506174637 | 14 | 20 | 3.2 | 4.8 | 0.00 | 0.91 | 0.91 | 55 | 1012.6 |
| 20260506174134 | 15 | 36 | 6.4 | 9.7 | 0.00 | 0.91 | 0.91 | 52 | 1012.7 |
| 20260506173631 | 15 | 28 | 4.8 | 4.8 | 0.00 | 0.91 | 0.91 | 52 | 1012.7 |
| 20260506173128 | 15 | 323 | 3.2 | 4.8 | 0.00 | 0.91 | 0.91 | 57 | 1012.8 |
| 20260506172625 | 14 | 353 | 4.8 | 8.0 | 0.00 | 0.91 | 0.91 | 54 | 1012.6 |
| 20260506172121 | 15 | 346 | 6.4 | 8.0 | 0.00 | 0.91 | 0.91 | 55 | 1012.7 |
| 20260506171619 | 15 | 12 | 6.4 | 9.7 | 0.00 | 0.91 | 0.91 | 55 | 1012.7 |
| 20260506171116 | 15 | 42 | 3.2 | 4.8 | 0.00 | 0.91 | 0.91 | 53 | 1012.8 |
| 20260506170613 | 15 | 11 | 1.6 | 1.6 | 0.00 | 0.91 | 0.91 | 60 | 1012.6 |
| 20260506170105 | 14 | 28 | 4.8 | 8.0 | 0.00 | 0.91 | 0.91 | 59 | 1012.6 |
| 20260506165604 | 14 | 32 | 6.4 | 8.0 | 0.00 | 0.91 | 0.91 | 59 | 1012.2 |
| 20260506165059 | 13 | 295 | 6.4 | 9.7 | 0.00 | 0.91 | 0.91 | 57 | 1012.3 |
| 20260506164557 | 15 | 14 | 4.8 | 9.7 | 0.00 | 0.91 | 0.91 | 56 | 1012.4 |
| 20260506164054 | 15 | 7 | 1.6 | 3.2 | 0.00 | 0.91 | 0.91 | 57 | 1012.6 |
| 20260506163549 | 14 | 24 | 8.0 | 9.7 | 0.00 | 0.91 | 0.91 | 58 | 1012.7 |
| 20260506163046 | 14 | 40 | 3.2 | 3.2 | 0.00 | 0.91 | 0.91 | 61 | 1012.9 |
| 20260506162542 | 13 | 39 | 9.7 | 11.3 | 0.00 | 0.91 | 0.91 | 59 | 1012.8 |
| 20260506162039 | 13 | 10 | 3.2 | 4.8 | 0.00 | 0.91 | 0.91 | 59 | 1012.8 |
| 20260506161536 | 13 | 359 | 4.8 | 4.8 | 0.00 | 0.91 | 0.91 | 60 | 1012.7 |
| 20260506161028 | 14 | 5 | 4.8 | 8.0 | 0.00 | 0.91 | 0.91 | 61 | 1012.7 |
| 20260506160526 | 13 | 27 | 3.2 | 4.8 | 0.00 | 0.91 | 0.91 | 61 | 1012.7 |
| 20260506160022 | 13 | 6 | 3.2 | 4.8 | 0.00 | 0.91 | 0.91 | 62 | 1012.6 |
| 20260506155521 | 13 | 3 | 3.2 | 3.2 | 0.00 | 0.91 | 0.91 | 67 | 1012.4 |
| 20260506153657 | 12 | 339 | 1.6 | 1.6 | 0.00 | 0.91 | 0.91 | 70 | 1012.2 |
| 20260506153155 | 12 | 49 | 4.8 | 9.7 | 0.00 | 0.91 | 0.91 | 67 | 1012.4 |
| 20260506152652 | 11 | 5 | 1.6 | 3.2 | 0.00 | 0.91 | 0.91 | 70 | 1012.2 |
| 20260506152149 | 11 | 334 | 4.8 | 8.0 | 0.00 | 0.91 | 0.91 | 70 | 1012.0 |
| 20260506151648 | 12 | 31 | 8.0 | 12.9 | 0.00 | 0.91 | 0.91 | 71 | 1011.9 |
| 20260506151144 | 12 | 337 | 4.8 | 8.0 | 0.00 | 0.91 | 0.91 | 72 | 1011.8 |
| 20260506150641 | 12 | 41 | 3.2 | 3.2 | 0.00 | 0.91 | 0.91 | 72 | 1011.9 |
| 20260506150138 | 11 | 26 | 4.8 | 8.0 | 0.00 | 0.91 | 0.91 | 71 | 1011.7 |
| 20260506145635 | 11 | 45 | 1.6 | 3.2 | 0.00 | 0.91 | 0.91 | 73 | 1012.0 |
| 20260506145131 | 11 | 343 | 3.2 | 4.8 | 0.00 | 0.91 | 0.91 | 76 | 1012.0 |
| 20260506144629 | 11 | 33 | 1.6 | 3.2 | 0.00 | 0.91 | 0.91 | 75 | 1011.9 |
| 20260506144126 | 10 | 20 | 1.6 | 1.6 | 0.00 | 0.91 | 0.91 | 77 | 1011.7 |
| 20260506143624 | 10 | 3 | 4.8 | 4.8 | 0.00 | 0.91 | 0.91 | 77 | 1011.6 |
| 20260506143121 | 10 | 358 | 3.2 | 3.2 | 0.00 | 0.91 | 0.91 | 80 | 1011.8 |
| 20260506142620 | 10 | 11 | 4.8 | 8.0 | 0.00 | 0.91 | 0.91 | 79 | 1011.7 |
| 20260506142117 | 10 | 350 | 4.8 | 4.8 | 0.00 | 0.91 | 0.91 | 80 | 1011.8 |
| 20260506141614 | 10 | 355 | 1.6 | 3.2 | 0.00 | 0.91 | 0.91 | 80 | 1011.4 |
| 20260506141113 | 10 | 23 | 4.8 | 8.0 | 0.00 | 0.91 | 0.91 | 81 | 1011.3 |
| 20260506140610 | 10 | 347 | 1.6 | 3.2 | 0.00 | 0.91 | 0.91 | 83 | 1011.5 |
| 20260506140107 | 10 | 17 | 3.2 | 4.8 | 0.00 | 0.91 | 0.91 | 84 | 1011.3 |
| 20260506135604 | 10 | 2 | 4.8 | 4.8 | 0.00 | 0.91 | 0.91 | 84 | 1011.0 |
| 20260506135100 | 10 | 331 | 3.2 | 3.2 | 0.00 | 0.91 | 0.91 | 87 | 1011.0 |
| 20260506134557 | 8 | 352 | 3.2 | 3.2 | 0.00 | 0.91 | 0.91 | 91 | 1011.1 |
| 20260506134052 | 8 | 331 | 4.8 | 8.0 | 0.00 | 0.91 | 0.91 | 96 | 1011.0 |
| 20260506133550 | 8 | 251 | 3.2 | 3.2 | 0.00 | 0.91 | 0.91 | 99 | 1010.9 |
| 20260506133047 | 7 | 354 | 3.2 | 3.2 | 0.00 | 0.91 | 0.91 | 99 | 1011.0 |
| 20260506132544 | 7 | 21 | 1.6 | 1.6 | 0.00 | 0.91 | 0.91 | 99 | 1010.8 |
| 20260506132041 | 8 | 1 | 1.6 | 4.8 | 0.00 | 0.91 | 0.91 | 99 | 1010.8 |
| 20260506131538 | 8 | 354 | 1.6 | 3.2 | 0.00 | 0.91 | 0.91 | 99 | 1010.8 |
| 20260506131034 | 8 | 343 | 1.6 | 3.2 | 0.00 | 0.91 | 0.91 | 99 | 1010.7 |
| 20260506130532 | 8 | 247 | 0.0 | 1.6 | 0.00 | 0.91 | 0.91 | 99 | 1010.8 |
| 20260506130029 | 8 | 352 | 3.2 | 3.2 | 0.00 | 0.91 | 0.91 | 99 | 1010.7 |
| 20260506125527 | 8 | 352 | 0.0 | 1.6 | 0.00 | 0.91 | 0.91 | 99 | 1010.6 |
| 20260506125025 | 8 | 13 | 1.6 | 1.6 | 0.00 | 0.91 | 0.91 | 99 | 1010.7 |
| 20260506124523 | 8 | 10 | 1.6 | 1.6 | 0.00 | 0.91 | 0.91 | 99 | 1010.7 |
| 20260506124020 | 8 | 348 | 0.0 | 0.0 | 0.00 | 0.91 | 0.91 | 99 | 1010.6 |
| 20260506123518 | 8 | 7 | 1.6 | 1.6 | 0.00 | 0.91 | 0.91 | 99 | 1010.6 |
| 20260506123016 | 8 | 6 | 3.2 | 4.8 | 0.00 | 0.91 | 0.91 | 99 | 1010.2 |
| 20260506122512 | 8 | 12 | 3.2 | 4.8 | 0.00 | 0.91 | 0.91 | 99 | 1009.8 |
| 20260506122010 | 7 | 35 | 3.2 | 3.2 | 0.00 | 0.91 | 0.91 | 99 | 1009.7 |
| 20260506121508 | 7 | 8 | 3.2 | 4.8 | 0.00 | 0.91 | 0.91 | 99 | 1009.7 |
| 20260506121004 | 7 | 0 | 4.8 | 4.8 | 0.00 | 0.91 | 0.91 | 99 | 1009.9 |
| 20260506120502 | 7 | 351 | 3.2 | 3.2 | 0.00 | 0.91 | 0.91 | 99 | 1009.4 |
| 20260506115959 | 7 | 23 | 3.2 | 3.2 | 0.00 | 0.91 | 0.91 | 99 | 1009.6 |
| 20260506115457 | 7 | 20 | 0.0 | 0.0 | 0.00 | 0.91 | 0.91 | 99 | 1010.0 |
| 20260506114955 | 7 | 10 | 1.6 | 1.6 | 0.00 | 0.91 | 0.91 | 99 | 1009.9 |
| 20260506114452 | 7 | 330 | 3.2 | 8.0 | 0.00 | 0.91 | 0.91 | 99 | 1009.5 |
| 20260506113950 | 7 | 21 | 1.6 | 1.6 | 0.00 | 0.91 | 0.91 | 99 | 1009.7 |
| 20260506113448 | 7 | 10 | 1.6 | 1.6 | 0.00 | 0.91 | 0.91 | 99 | 1010.0 |
| 20260506112944 | 7 | 7 | 0.0 | 1.6 | 0.18 | 0.91 | 0.91 | 99 | 1009.9 |
| 20260506112442 | 7 | 11 | 0.0 | 1.6 | 0.18 | 0.91 | 0.91 | 99 | 1009.4 |
| 20260506111939 | 7 | 21 | 1.6 | 1.6 | 0.00 | 0.89 | 0.89 | 99 | 1009.1 |
| 20260506111437 | 7 | 6 | 3.2 | 3.2 | 0.00 | 0.89 | 0.89 | 99 | 1008.8 |
| 20260506110934 | 7 | 351 | 3.2 | 3.2 | 0.00 | 0.89 | 0.89 | 99 | 1008.9 |
| 20260506110432 | 7 | 358 | 4.8 | 4.8 | 0.00 | 0.89 | 0.89 | 99 | 1008.7 |
| 20260506105927 | 7 | 358 | 4.8 | 8.0 | 0.00 | 0.89 | 0.89 | 99 | 1008.5 |
| 20260506105424 | 7 | 18 | 3.2 | 3.2 | 0.00 | 0.89 | 0.89 | 99 | 1008.2 |
| 20260506104921 | 7 | 24 | 3.2 | 3.2 | 0.00 | 0.89 | 0.89 | 99 | 1008.3 |
| 20260506104419 | 7 | 21 | 1.6 | 1.6 | 0.00 | 0.89 | 0.89 | 99 | 1008.5 |
| 20260506103917 | 7 | 2 | 4.8 | 4.8 | 0.00 | 0.89 | 0.89 | 99 | 1008.7 |
| 20260506103414 | 7 | 0 | 0.0 | 0.0 | 0.00 | 0.89 | 0.89 | 99 | 1008.8 |
| 20260506102911 | 7 | 341 | 1.6 | 1.6 | 0.00 | 0.89 | 0.89 | 99 | 1008.7 |
| 20260506102409 | 7 | 23 | 0.0 | 1.6 | 0.00 | 0.89 | 0.89 | 99 | 1008.6 |
| 20260506101906 | 7 | 7 | 0.0 | 0.0 | 0.00 | 0.89 | 0.89 | 99 | 1008.4 |
| 20260506101402 | 7 | 344 | 3.2 | 4.8 | 0.00 | 0.89 | 0.89 | 99 | 1008.2 |
| 20260506100900 | 7 | 345 | 3.2 | 4.8 | 0.00 | 0.89 | 0.89 | 99 | 1008.1 |
| 20260506100358 | 7 | 354 | 4.8 | 4.8 | 0.00 | 0.89 | 0.89 | 99 | 1007.8 |
| 20260506095856 | 7 | 53 | 1.6 | 3.2 | 0.00 | 0.89 | 0.89 | 99 | 1007.5 |
| 20260506095354 | 7 | 9 | 4.8 | 4.8 | 0.00 | 0.89 | 0.89 | 99 | 1007.5 |
| 20260506094850 | 7 | 33 | 3.2 | 3.2 | 0.00 | 0.89 | 0.89 | 99 | 1007.4 |
| 20260506094349 | 7 | 47 | 4.8 | 9.7 | 0.00 | 0.89 | 0.89 | 99 | 1007.2 |
| 20260506093847 | 7 | 23 | 3.2 | 3.2 | 0.00 | 0.89 | 0.89 | 99 | 1007.4 |
| 20260506093344 | 7 | 352 | 4.8 | 4.8 | 0.00 | 0.89 | 0.89 | 99 | 1007.5 |
| 20260506092841 | 7 | 349 | 3.2 | 4.8 | 0.00 | 0.89 | 0.89 | 99 | 1007.9 |
| 20260506092339 | 7 | 358 | 4.8 | 8.0 | 0.00 | 0.89 | 0.89 | 99 | 1007.8 |
| 20260506091836 | 7 | 332 | 3.2 | 3.2 | 0.00 | 0.89 | 0.89 | 99 | 1007.6 |
| 20260506091334 | 7 | 25 | 6.4 | 9.7 | 0.00 | 0.89 | 0.89 | 99 | 1007.8 |
| 20260506090831 | 7 | 28 | 3.2 | 3.2 | 0.13 | 0.89 | 0.89 | 99 | 1007.4 |
| 20260506090328 | 7 | 359 | 1.6 | 3.2 | 0.13 | 0.89 | 0.89 | 99 | 1007.6 |
| 20260506085824 | 7 | 36 | 4.8 | 8.0 | 0.18 | 0.86 | 0.86 | 99 | 1007.3 |
| 20260506085321 | 7 | 348 | 4.8 | 4.8 | 0.18 | 0.86 | 0.86 | 99 | 1007.2 |
| 20260506084818 | 7 | 14 | 1.6 | 3.2 | 0.30 | 0.86 | 0.86 | 99 | 1007.2 |
| 20260506084314 | 7 | 19 | 4.8 | 4.8 | 0.30 | 0.84 | 0.84 | 99 | 1007.8 |
| 20260506083811 | 7 | 30 | 1.6 | 3.2 | 0.18 | 0.81 | 0.81 | 99 | 1007.8 |
| 20260506083309 | 7 | 55 | 4.8 | 4.8 | 0.13 | 0.79 | 0.79 | 99 | 1007.8 |
| 20260506082806 | 7 | 40 | 3.2 | 3.2 | 0.13 | 0.79 | 0.79 | 99 | 1007.6 |
| 20260506082304 | 7 | 351 | 4.8 | 8.0 | 0.36 | 0.76 | 0.76 | 99 | 1007.6 |
| 20260506081759 | 7 | 9 | 4.8 | 4.8 | 0.30 | 0.74 | 0.74 | 99 | 1007.4 |
| 20260506081256 | 7 | 349 | 4.8 | 8.0 | 0.48 | 0.74 | 0.74 | 99 | 1007.3 |
| 20260506080754 | 7 | 342 | 4.8 | 12.9 | 0.30 | 0.69 | 0.69 | 99 | 1007.3 |
| 20260506080250 | 8 | 15 | 4.8 | 8.0 | 0.43 | 0.66 | 0.66 | 99 | 1007.3 |
| 20260506073234 | 8 | 340 | 4.8 | 8.0 | 0.00 | 0.58 | 0.58 | 99 | 1006.7 |
| 20260506072731 | 8 | 82 | 1.6 | 1.6 | 0.00 | 0.58 | 0.58 | 99 | 1006.8 |
| 20260506072229 | 8 | 33 | 1.6 | 1.6 | 0.00 | 0.58 | 0.58 | 99 | 1006.8 |
| 20260506071726 | 8 | 32 | 1.6 | 1.6 | 0.00 | 0.58 | 0.58 | 99 | 1006.9 |
| 20260506071224 | 8 | 343 | 0.0 | 1.6 | 0.18 | 0.58 | 0.58 | 99 | 1006.6 |
| 20260506070721 | 8 | 9 | 4.8 | 4.8 | 0.18 | 0.58 | 0.58 | 99 | 1006.6 |
| 20260506070218 | 8 | 20 | 1.6 | 1.6 | 0.13 | 0.56 | 0.56 | 99 | 1006.8 |
| 20260506062154 | 9 | 24 | 1.6 | 1.6 | 0.30 | 0.41 | 0.41 | 99 | 1007.0 |
| 20260506061650 | 9 | 270 | 4.8 | 9.7 | 0.30 | 0.38 | 0.38 | 99 | 1006.9 |
| 20260506061148 | 9 | 8 | 1.6 | 1.6 | 0.48 | 0.36 | 0.36 | 99 | 1007.0 |
| 20260506060647 | 9 | 346 | 1.6 | 1.6 | 0.43 | 0.33 | 0.33 | 99 | 1006.8 |
| 20260506060143 | 9 | 340 | 3.2 | 3.2 | 0.30 | 0.28 | 0.28 | 99 | 1006.9 |
| 20260506051115 | 10 | 17 | 0.0 | 0.0 | 0.18 | 0.03 | 0.03 | 99 | 1007.2 |
| 20260506050614 | 10 | 356 | 4.8 | 9.7 | 0.00 | 0.00 | 0.00 | 99 | 1007.0 |
| 20260506050110 | 10 | 13 | 1.6 | 1.6 | 0.00 | 0.00 | 0.00 | 99 | 1007.1 |
| 20260506045104 | 10 | 10 | 0.0 | 1.6 | 0.00 | 0.00 | 0.00 | 99 | 1007.1 |
| 20260506044602 | 10 | 24 | 1.6 | 1.6 | 0.00 | 0.00 | 0.00 | 99 | 1007.2 |
| 20260506044058 | 10 | 8 | 1.6 | 3.2 | 0.00 | 0.00 | 0.00 | 99 | 1007.0 |
| 20260506043555 | 10 | 5 | 1.6 | 1.6 | 0.00 | 0.00 | 0.00 | 99 | 1007.1 |
| 20260506043054 | 11 | 33 | 3.2 | 3.2 | 0.00 | 0.00 | 0.00 | 99 | 1007.3 |
| 20260506042553 | 11 | 335 | 0.0 | 1.6 | 0.00 | 0.00 | 0.00 | 99 | 1007.1 |
| 20260506042050 | 11 | 3 | 4.8 | 4.8 | 0.00 | 0.00 | 0.00 | 99 | 1007.4 |
| 20260506041549 | 11 | 17 | 0.0 | 0.0 | 0.00 | 0.00 | 0.00 | 99 | 1007.2 |
| 20260506041045 | 12 | 23 | 4.8 | 4.8 | 0.00 | 0.00 | 0.00 | 99 | 1007.3 |
| 20260506040543 | 13 | 26 | 1.6 | 3.2 | 0.00 | 0.00 | 0.00 | 99 | 1007.4 |
| 20260506040038 | 14 | 165 | 0.0 | 0.0 | 0.00 | 1.12 | 1.12 | 99 | 1007.3 |
| 20260506035536 | 14 | 169 | 0.0 | 0.0 | 0.13 | 1.12 | 1.12 | 99 | 1007.4 |
| 20260506035032 | 14 | 169 | 0.0 | 0.0 | 0.13 | 1.12 | 1.12 | 99 | 1007.2 |
| 20260506034530 | 14 | 170 | 0.0 | 0.0 | 0.18 | 1.09 | 1.09 | 99 | 1007.2 |
| 20260506034026 | 14 | 217 | 0.0 | 3.2 | 0.18 | 1.09 | 1.09 | 99 | 1007.2 |
| 20260506033524 | 14 | 110 | 0.0 | 1.6 | 0.13 | 1.07 | 1.07 | 99 | 1007.5 |
| 20260506033021 | 14 | 15 | 0.0 | 0.0 | 0.30 | 1.07 | 1.07 | 99 | 1007.6 |
| 20260506032518 | 14 | 29 | 0.0 | 1.6 | 0.30 | 1.04 | 1.04 | 99 | 1007.9 |
| 20260506032015 | 14 | 87 | 1.6 | 1.6 | 0.30 | 1.02 | 1.02 | 99 | 1007.8 |
| 20260506031513 | 14 | 150 | 0.0 | 0.0 | 0.48 | 0.99 | 0.99 | 99 | 1008.0 |
| 20260506031009 | 14 | 210 | 1.6 | 1.6 | 0.48 | 0.97 | 0.97 | 99 | 1007.9 |
| 20260506030508 | 14 | 153 | 1.6 | 1.6 | 0.48 | 0.94 | 0.94 | 99 | 1008.1 |
| 20260506030004 | 14 | 25 | 0.0 | 0.0 | 0.30 | 0.89 | 0.89 | 99 | 1008.2 |
| 20260506025501 | 14 | 143 | 0.0 | 1.6 | 0.30 | 0.86 | 0.86 | 99 | 1008.2 |
| 20260506024957 | 15 | 142 | 0.0 | 0.0 | 0.13 | 0.84 | 0.84 | 99 | 1008.2 |
| 20260506024454 | 15 | 119 | 0.0 | 0.0 | 0.00 | 0.81 | 0.81 | 99 | 1008.2 |
| 20260506023950 | 15 | 119 | 1.6 | 1.6 | 0.18 | 0.81 | 0.81 | 99 | 1007.9 |
| 20260506023447 | 15 | 149 | 0.0 | 0.0 | 0.18 | 0.81 | 0.81 | 99 | 1008.1 |
| 20260506022944 | 15 | 164 | 0.0 | 1.6 | 0.13 | 0.79 | 0.79 | 99 | 1008.1 |
| 20260506022442 | 15 | 14 | 0.0 | 0.0 | 0.30 | 0.79 | 0.79 | 99 | 1008.2 |
| 20260506021939 | 15 | 78 | 1.6 | 1.6 | 0.30 | 0.76 | 0.76 | 99 | 1008.0 |
| 20260506021436 | 15 | 193 | 0.0 | 0.0 | 0.43 | 0.74 | 0.74 | 99 | 1008.3 |